Location: LDNL
(36.4545°S, 141.6685°E)
Time: 16:16:40
(UTC+10:00)

RS-44 - Visible Passes

Search period start: 28 September 2022 00:00
Search period end: 08 October 2022 01:00
Orbit: 1174 x 1511 km, 82.5° (Epoch: 27 September)

Date Brightness Start Highest point End Pass type
(mag) Time Alt. Az. Time Alt. Az. Time Alt. Az.
28 Sep ? 22:28:15 25° SSE 22:28:15 25° SSE 22:31:45 10° SSE visible
29 Sep ? 00:20:49 27° SSW 00:20:49 27° SSW 00:25:05 10° S visible
29 Sep ? 22:51:35 33° SSE 22:51:35 33° SSE 22:55:55 10° SSE visible
30 Sep ? 00:44:08 21° SW 00:44:08 21° SW 00:48:07 10° SSW visible
30 Sep ? 21:22:19 15° SE 21:22:19 15° SE 21:24:19 10° SE visible
30 Sep ? 23:14:53 38° S 23:14:53 38° S 23:19:49 10° S visible
01 Oct ? 01:07:26 14° SW 01:07:26 14° SW 01:10:20 10° SSW visible
01 Oct ? 21:45:35 23° SE 21:45:35 23° SE 21:49:20 10° SSE visible
01 Oct ? 23:38:09 36° SSW 23:38:09 36° SSW 23:43:28 10° S visible
02 Oct ? 23:08:51 34° SE 23:08:51 34° SE 23:13:46 10° SSE visible
03 Oct ? 01:01:24 29° SW 01:01:24 29° SW 01:06:49 10° S visible
03 Oct ? 21:39:31 11° ESE 21:39:31 11° ESE 21:40:36 10° SE visible
03 Oct ? 23:32:04 45° SSE 23:32:04 45° SSE 23:37:51 10° S visible
04 Oct ? 01:24:37 21° SW 01:24:37 21° SW 01:29:42 10° SSW visible
04 Oct ? 22:02:42 20° ESE 22:02:42 20° ESE 22:06:37 10° SE visible
04 Oct ? 23:55:15 50° SSW 23:55:15 50° SSW 00:01:41 10° S visible
05 Oct ? 01:47:48 13° WSW 01:47:50 13° WSW 01:51:26 10° SW visible
05 Oct ? 22:25:51 32° ESE 22:25:51 32° ESE 22:31:26 10° SSE visible
06 Oct ? 00:18:25 42° SW 00:18:25 42° SW 00:25:15 10° S visible
06 Oct ? 22:48:58 49° SE 22:48:58 49° SE 22:55:44 10° SSE visible
07 Oct ? 00:41:31 30° WSW 00:41:31 30° WSW 00:48:30 10° SSW visible
07 Oct ? 21:19:31 15° ESE 21:19:31 15° ESE 21:23:20 10° SE visible
07 Oct ? 23:12:03 69° SSE 23:12:03 69° SSE 23:19:45 10° S visible
